Weather History for Waupaca, WI

Change the Weather History Date:

Friday, March 14, 2014

  Actual Average Record
Temperature  
Mean Temperature 40 °F -  
Max Temperature 46 °F 39 °F 78 °F (2012)
Min Temperature 35 °F 23 °F -4 °F (1950)
Degree Days  
Heating Degree Days 24    
Moisture  
Dew Point 30 °F    
Average Humidity 66    
Maximum Humidity 81    
Minimum Humidity 53    
Precipitation  
Precipitation 0.00 in - - ()
Sea Level Pressure  
Sea Level Pressure 29.56 in    
Wind  
Wind Speed 10 mph (WSW)    
Max Wind Speed 20 mph    
Max Gust Speed 31 mph    
Visibility 10 miles    
Events      
Averages and records for this station are not official NWS values.
T = Trace of Precipitation, MM = Missing Value Source: NWS Daily Summary

Daily Weather History Graph

Daily Weather History Graph

Search for Another Location

Airport:

Trip Planner

Search our weather history database for the weather conditions in past years. The results will help you decide how hot, cold, wet, or windy it might be!

Date:

Astronomy

Mar. 14, 2014 Rise Set
Actual Time 7:10 AM CDT 7:00 PM CDT
Civil Twilight 6:41 AM CDT 7:29 PM CDT
Nautical Twilight 6:07 AM CDT 8:03 PM CDT
Astronomical Twilight 5:33 AM CDT 8:38 PM CDT
Moon 5:20 PM CDT (3/14) 5:53 AM CDT (3/14)
Length of Visible Light 12h 48m
Length of Day
11h 50m
Waxing Gibbous, 96% of the Moon is Illuminated
Mar 14
Waxing Gibbous
Mar 16
Full
Mar 23
Last Quarter
Mar 30
New
Apr 7
First Quarter

Hourly Weather History & Observations

Time (CDT) Temp. Windchill Dew Point Humidity Pressure Visibility Wind Dir Wind Speed Gust Speed Precip Events Conditions
12:17 AM 35.6 °F 28.6 °F 30.2 °F 81% 29.62 in 10.0 mi South 9.2 mph - N/A   Clear
12:37 AM 35.6 °F 29.2 °F 30.2 °F 81% 29.61 in 10.0 mi South 8.1 mph - N/A   Clear
12:57 AM 35.6 °F 29.2 °F 30.2 °F 81% 29.60 in 10.0 mi South 8.1 mph - N/A   Clear
1:17 AM 37.4 °F 32.1 °F 32.0 °F 81% 29.59 in 10.0 mi South 6.9 mph - N/A   Clear
1:37 AM 37.4 °F 31.4 °F 32.0 °F 81% 29.58 in 10.0 mi South 8.1 mph - N/A   Clear
1:57 AM 37.4 °F 32.1 °F 32.0 °F 81% 29.56 in 10.0 mi South 6.9 mph - N/A   Clear
2:17 AM 37.4 °F 32.1 °F 32.0 °F 81% 29.55 in 10.0 mi South 6.9 mph - N/A   Clear
2:37 AM 37.4 °F 30.8 °F 32.0 °F 81% 29.54 in 10.0 mi South 9.2 mph - N/A   Clear
2:59 AM 39.2 °F 33.0 °F 33.8 °F 81% 29.53 in 10.0 mi SSW 9.2 mph - N/A   Clear
3:17 AM 39.2 °F 33.0 °F 32.0 °F 75% 29.51 in 10.0 mi SSW 9.2 mph - N/A   Clear
3:39 AM 39.2 °F 33.0 °F 32.0 °F 75% 29.50 in 10.0 mi South 9.2 mph - N/A   Clear
3:57 AM 39.2 °F 32.5 °F 32.0 °F 75% 29.49 in 10.0 mi SSW 10.4 mph - N/A   Clear
4:19 AM 39.2 °F 33.6 °F 32.0 °F 75% 29.49 in 10.0 mi SW 8.1 mph - N/A   Clear
4:37 AM 39.2 °F 33.6 °F 32.0 °F 75% 29.48 in 10.0 mi SW 8.1 mph - N/A   Clear
4:57 AM 39.2 °F 34.2 °F 32.0 °F 75% 29.47 in 10.0 mi SSW 6.9 mph - N/A   Clear
5:17 AM 39.2 °F 34.2 °F 32.0 °F 75% 29.46 in 10.0 mi SSW 6.9 mph - N/A   Clear
5:37 AM 39.2 °F 35.0 °F 32.0 °F 75% 29.45 in 10.0 mi SSW 5.8 mph - N/A   Clear
5:57 AM 37.4 °F 32.1 °F 30.2 °F 75% 29.45 in 10.0 mi SSW 6.9 mph - N/A   Clear
6:17 AM 37.4 °F 32.8 °F 30.2 °F 75% 29.44 in 10.0 mi SSW 5.8 mph - N/A   Clear
6:57 AM 37.4 °F 33.8 °F 30.2 °F 75% 29.44 in 10.0 mi South 4.6 mph - N/A   Clear
7:37 AM 37.4 °F - 30.2 °F 75% 29.44 in 10.0 mi Calm Calm - N/A   Clear
7:57 AM 39.2 °F - 30.2 °F 70% 29.45 in 10.0 mi Calm Calm - N/A   Clear
8:17 AM 41.0 °F 36.4 °F 30.2 °F 65% 29.44 in 10.0 mi West 6.9 mph - N/A   Clear
8:37 AM 42.8 °F 37.5 °F 30.2 °F 61% 29.44 in 10.0 mi West 9.2 mph - N/A   Clear
8:57 AM 42.8 °F 38.0 °F 30.2 °F 61% 29.44 in 10.0 mi West 8.1 mph - N/A   Clear
9:17 AM 44.6 °F 38.8 °F 30.2 °F 57% 29.45 in 10.0 mi West 11.5 mph 18.4 mph N/A   Clear
9:37 AM 44.6 °F 38.8 °F 30.2 °F 57% 29.45 in 10.0 mi West 11.5 mph - N/A   Scattered Clouds
9:57 AM 42.8 °F 37.5 °F 32.0 °F 66% 29.46 in 10.0 mi West 9.2 mph - N/A   Mostly Cloudy
10:17 AM 42.8 °F 35.4 °F 32.0 °F 66% 29.47 in 10.0 mi West 15.0 mph 20.7 mph N/A   Overcast
10:37 AM 42.8 °F 35.4 °F 32.0 °F 66% 29.47 in 10.0 mi West 15.0 mph 20.7 mph N/A   Overcast
10:57 AM 42.8 °F 37.5 °F 32.0 °F 66% 29.47 in 10.0 mi West 9.2 mph - N/A   Overcast
11:17 AM 42.8 °F 35.8 °F 32.0 °F 66% 29.46 in 10.0 mi West 13.8 mph 20.7 mph N/A   Mostly Cloudy
11:37 AM 44.6 °F 38.1 °F 32.0 °F 61% 29.46 in 10.0 mi West 13.8 mph 24.2 mph N/A   Scattered Clouds
11:57 AM 44.6 °F 38.1 °F 32.0 °F 61% 29.47 in 10.0 mi West 13.8 mph 20.7 mph N/A   Clear
12:17 PM 44.6 °F 38.1 °F 32.0 °F 61% 29.48 in 10.0 mi West 13.8 mph 19.6 mph N/A   Clear
12:38 PM 46.4 °F 40.1 °F 30.2 °F 53% 29.48 in 10.0 mi WNW 15.0 mph 24.2 mph N/A   Clear
12:57 PM 46.4 °F 39.0 °F 30.2 °F 53% 29.49 in 10.0 mi West 19.6 mph 28.8 mph N/A   Clear
1:37 PM 44.6 °F 36.9 °F 28.4 °F 53% 29.50 in 10.0 mi WNW 18.4 mph 26.5 mph N/A   Mostly Cloudy
1:57 PM 44.6 °F 37.2 °F 30.2 °F 57% 29.51 in 10.0 mi West 17.3 mph 27.6 mph N/A   Overcast
2:17 PM 42.8 °F 35.4 °F 30.2 °F 61% 29.52 in 10.0 mi West 15.0 mph 29.9 mph N/A   Overcast
2:37 PM 42.8 °F 35.1 °F 30.2 °F 61% 29.53 in 10.0 mi West 16.1 mph 29.9 mph N/A   Mostly Cloudy
2:57 PM 41.0 °F 31.9 °F 30.2 °F 65% 29.54 in 10.0 mi West 19.6 mph 28.8 mph N/A   Overcast
3:17 PM 41.0 °F 33.9 °F 30.2 °F 65% 29.55 in 10.0 mi West 12.7 mph 28.8 mph N/A   Overcast
3:37 PM 41.0 °F 33.9 °F 30.2 °F 65% 29.56 in 10.0 mi West 12.7 mph 25.3 mph N/A   Overcast
3:57 PM 41.0 °F 32.8 °F 30.2 °F 65% 29.56 in 10.0 mi West 16.1 mph 20.7 mph N/A   Overcast
4:17 PM 41.0 °F 33.9 °F 30.2 °F 65% 29.57 in 10.0 mi West 12.7 mph 20.7 mph N/A   Overcast
4:37 PM 41.0 °F 33.9 °F 30.2 °F 65% 29.58 in 10.0 mi WNW 12.7 mph 21.9 mph N/A   Overcast
4:57 PM 42.8 °F 35.4 °F 30.2 °F 61% 29.58 in 10.0 mi West 15.0 mph 21.9 mph N/A   Overcast
5:17 PM 42.8 °F 36.2 °F 30.2 °F 61% 29.59 in 10.0 mi West 12.7 mph 23.0 mph N/A   Mostly Cloudy
5:37 PM 42.8 °F 35.8 °F 30.2 °F 61% 29.59 in 10.0 mi West 13.8 mph 23.0 mph N/A   Scattered Clouds
5:58 PM 42.8 °F 34.8 °F 30.2 °F 61% 29.60 in 10.0 mi West 17.3 mph 23.0 mph N/A   Clear
6:17 PM 42.8 °F 36.6 °F 30.2 °F 61% 29.61 in 10.0 mi West 11.5 mph 18.4 mph N/A   Clear
6:37 PM 42.8 °F 35.1 °F 30.2 °F 61% 29.62 in 10.0 mi West 16.1 mph - N/A   Clear
6:58 PM 41.0 °F 33.9 °F 30.2 °F 65% 29.63 in 10.0 mi West 12.7 mph - N/A   Clear
7:18 PM 41.0 °F 33.5 °F 28.4 °F 61% 29.64 in 10.0 mi WSW 13.8 mph - N/A   Scattered Clouds
7:37 PM 41.0 °F 33.1 °F 28.4 °F 61% 29.65 in 10.0 mi West 15.0 mph 21.9 mph N/A   Overcast
7:59 PM 42.8 °F 35.4 °F 26.6 °F 53% 29.66 in 10.0 mi West 15.0 mph 28.8 mph N/A   Overcast
8:17 PM 42.8 °F 34.3 °F 26.6 °F 53% 29.66 in 10.0 mi West 19.6 mph 31.1 mph N/A   Mostly Cloudy
8:37 PM 41.0 °F 32.8 °F 26.6 °F 57% 29.68 in 10.0 mi West 16.1 mph 26.5 mph N/A   Mostly Cloudy
8:57 PM 39.2 °F 31.2 °F 26.6 °F 61% 29.69 in 10.0 mi West 13.8 mph 20.7 mph N/A   Scattered Clouds
9:19 PM 39.2 °F 30.8 °F 26.6 °F 61% 29.70 in 10.0 mi West 15.0 mph - N/A   Clear
9:37 PM 39.2 °F 30.8 °F 26.6 °F 61% 29.71 in 10.0 mi West 15.0 mph 21.9 mph N/A   Mostly Cloudy
9:57 PM 39.2 °F 31.6 °F 26.6 °F 61% 29.72 in 10.0 mi West 12.7 mph 20.7 mph N/A   Overcast
10:17 PM 39.2 °F 31.6 °F 26.6 °F 61% 29.73 in 10.0 mi West 12.7 mph 18.4 mph N/A   Overcast
10:37 PM 39.2 °F 30.8 °F 24.8 °F 56% 29.74 in 10.0 mi WNW 15.0 mph 23.0 mph N/A   Overcast
10:59 PM 39.2 °F 30.8 °F 24.8 °F 56% 29.75 in 10.0 mi WNW 15.0 mph 19.6 mph N/A   Overcast
11:17 PM 37.4 °F 28.2 °F 24.8 °F 60% 29.76 in 10.0 mi WNW 16.1 mph 28.8 mph N/A   Overcast
11:37 PM 37.4 °F 28.5 °F 23.0 °F 56% 29.77 in 10.0 mi WNW 15.0 mph 19.6 mph N/A   Overcast
11:57 PM 37.4 °F 28.9 °F 23.0 °F 56% 29.78 in 10.0 mi WNW 13.8 mph 21.9 mph N/A   Overcast